| time (UTC) | temp C | wind direction | speed KPH | gust KPH | rain 1hr cm | rain 24hr cm | rain mn cm | humidity % | barometer mb |
| 20260505091341 | 11 | 82 | 0.0 | 0.0 | 0.00 | 0.00 | 0.00 | 95 | 1012.3 |
| 20260505090824 | 11 | 82 | 0.0 | 0.0 | 0.00 | 0.00 | 0.00 | 96 | 1012.4 |
| 20260505090311 | 11 | 82 | 0.0 | 3.2 | 0.00 | 0.00 | 0.00 | 96 | 1012.3 |
| 20260505085821 | 11 | 82 | 0.0 | 0.0 | 0.00 | 0.00 | 0.00 | 96 | 1012.3 |
| 20260505085314 | 11 | 82 | 0.0 | 4.8 | 0.00 | 0.00 | 0.00 | 96 | 1012.2 |
| 20260505084818 | 11 | 96 | 0.0 | 0.0 | 0.00 | 0.00 | 0.00 | 96 | 1012.1 |
| 20260505084308 | 11 | 96 | 0.0 | 4.8 | 0.00 | 0.00 | 0.00 | 96 | 1012.2 |
| 20260505083755 | 11 | 95 | 0.0 | 3.2 | 0.00 | 0.00 | 0.00 | 96 | 1012.1 |
| 20260505083028 | 11 | 95 | 0.0 | 0.0 | 0.00 | 0.00 | 0.00 | 96 | 1012.1 |
| 20260505082520 | 11 | 95 | 0.0 | 4.8 | 0.00 | 0.00 | 0.00 | 96 | 1012.1 |
| 20260505082021 | 11 | 92 | 0.0 | 0.0 | 0.00 | 0.00 | 0.00 | 96 | 1012.0 |
| 20260505081300 | 11 | 92 | 0.0 | 0.0 | 0.00 | 0.00 | 0.00 | 96 | 1012.0 |
| 20260505080525 | 11 | 92 | 0.0 | 1.6 | 0.00 | 0.00 | 0.00 | 96 | 1011.9 |
| 20260505080015 | 11 | 92 | 0.0 | 1.6 | 0.00 | 0.00 | 0.00 | 96 | 1011.9 |
| 20260505075459 | 11 | 92 | 0.0 | 4.8 | 0.00 | 0.00 | 0.00 | 96 | 1011.8 |
| 20260505074709 | 11 | 57 | 0.0 | 4.8 | 0.00 | 0.00 | 0.00 | 96 | 1011.7 |
| 20260505074208 | 11 | 57 | 0.0 | 8.0 | 0.00 | 0.00 | 0.00 | 96 | 1011.8 |
| 20260505073712 | 11 | 57 | 0.0 | 8.0 | 0.00 | 0.00 | 0.00 | 96 | 1011.7 |
| 20260505073220 | 11 | 53 | 0.0 | 8.0 | 0.00 | 0.00 | 0.00 | 96 | 1011.7 |
| 20260505072722 | 11 | 52 | 0.0 | 8.0 | 0.00 | 0.00 | 0.00 | 96 | 1011.6 |
| 20260505072230 | 11 | 75 | 0.0 | 8.0 | 0.00 | 0.00 | 0.00 | 96 | 1011.6 |
| 20260505071716 | 11 | 111 | 0.0 | 3.2 | 0.00 | 0.00 | 0.00 | 96 | 1011.6 |
| 20260505071226 | 11 | 109 | 0.0 | 12.9 | 0.00 | 0.00 | 0.00 | 95 | 1011.5 |
| 20260505070715 | 11 | 109 | 0.0 | 12.9 | 0.00 | 0.00 | 0.00 | 95 | 1011.5 |
| 20260505070212 | 11 | 81 | 0.0 | 8.0 | 0.00 | 0.00 | 0.00 | 95 | 1011.4 |
| 20260505065712 | 11 | 80 | 0.0 | 8.0 | 0.00 | 0.00 | 0.00 | 95 | 1011.4 |
| 20260505065206 | 11 | 192 | 0.0 | 1.6 | 0.00 | 0.00 | 0.00 | 95 | 1011.3 |
| 20260505064652 | 11 | 191 | 1.6 | 12.9 | 0.00 | 0.00 | 0.00 | 95 | 1011.3 |
| 20260505064154 | 11 | 149 | 0.0 | 6.4 | 0.00 | 0.00 | 0.00 | 94 | 1011.1 |
| 20260505063651 | 11 | 44 | 0.0 | 6.4 | 0.00 | 0.00 | 0.00 | 94 | 1011.2 |
| 20260505063133 | 11 | 61 | 0.0 | 3.2 | 0.00 | 0.00 | 0.00 | 94 | 1011.1 |
| 20260505062633 | 11 | 61 | 1.6 | 8.0 | 0.00 | 0.00 | 0.00 | 94 | 1011.0 |
| 20260505062141 | 11 | 36 | 1.6 | 8.0 | 0.00 | 0.00 | 0.00 | 94 | 1010.9 |
| 20260505061629 | 11 | 29 | 1.6 | 8.0 | 0.00 | 0.00 | 0.00 | 94 | 1011.0 |
| 20260505061122 | 11 | 59 | 1.6 | 6.4 | 0.00 | 0.00 | 0.00 | 94 | 1011.0 |
| 20260505060619 | 11 | 80 | 0.0 | 6.4 | 0.00 | 0.00 | 0.00 | 94 | 1010.8 |
| 20260505055858 | 11 | 55 | 0.0 | 4.8 | 0.00 | 0.00 | 0.00 | 94 | 1010.7 |
| 20260505055136 | 11 | 55 | 0.0 | 4.8 | 0.00 | 0.00 | 0.00 | 93 | 1010.6 |
| 20260505054348 | 11 | 56 | 0.0 | 3.2 | 0.00 | 0.00 | 0.00 | 93 | 1010.6 |
| 20260505053847 | 11 | 56 | 0.0 | 9.7 | 0.00 | 0.00 | 0.00 | 93 | 1010.6 |
| 20260505053342 | 11 | 56 | 0.0 | 3.2 | 0.00 | 0.00 | 0.00 | 93 | 1010.6 |
| 20260505052840 | 11 | 56 | 0.0 | 0.0 | 0.00 | 0.00 | 0.00 | 93 | 1010.5 |
| 20260505052325 | 11 | 56 | 0.0 | 0.0 | 0.00 | 0.00 | 0.00 | 93 | 1010.5 |
| 20260505051551 | 11 | 55 | 0.0 | 4.8 | 0.00 | 0.00 | 0.00 | 93 | 1010.5 |
| 20260505051051 | 11 | 327 | 0.0 | 9.7 | 0.00 | 0.00 | 0.00 | 93 | 1010.5 |
| 20260505050543 | 11 | 348 | 0.0 | 6.4 | 0.00 | 0.00 | 0.00 | 93 | 1010.5 |
| 20260505041544 | 12 | 194 | 0.0 | 6.4 | 0.00 | 0.00 | 0.00 | 90 | 1010.2 |
| 20260505041053 | 12 | 194 | 0.0 | 4.8 | 0.00 | 0.00 | 0.00 | 90 | 1010.1 |
| 20260505040542 | 12 | 194 | 0.0 | 4.8 | 0.00 | 0.00 | 0.00 | 89 | 1010.0 |
| 20260505040044 | 13 | 197 | 0.0 | 3.2 | 0.00 | 0.00 | 0.00 | 89 | 1009.9 |
| 20260505035530 | 13 | 197 | 0.0 | 1.6 | 0.00 | 0.00 | 0.00 | 88 | 1009.9 |
| 20260505034805 | 13 | 197 | 0.0 | 6.4 | 0.00 | 0.00 | 0.00 | 88 | 1009.9 |
| 20260505034314 | 13 | 201 | 0.0 | 6.4 | 0.00 | 0.00 | 0.00 | 87 | 1009.9 |
| 20260505033824 | 13 | 91 | 0.0 | 9.7 | 0.00 | 0.00 | 0.00 | 87 | 1009.7 |
| 20260505033333 | 13 | 92 | 1.6 | 9.7 | 0.00 | 0.00 | 0.00 | 86 | 1009.6 |
| 20260505032824 | 14 | 57 | 0.0 | 9.7 | 0.00 | 0.00 | 0.00 | 85 | 1009.5 |
| 20260505032041 | 14 | 140 | 0.0 | 9.7 | 0.00 | 0.00 | 0.00 | 84 | 1009.4 |
| 20260505031305 | 15 | 140 | 0.0 | 9.7 | 0.00 | 0.00 | 0.00 | 83 | 1009.3 |
| 20260505030754 | 15 | 140 | 0.0 | 9.7 | 0.00 | 0.00 | 0.00 | 82 | 1009.3 |
| 20260505030253 | 15 | 141 | 0.0 | 9.7 | 0.00 | 0.00 | 0.00 | 81 | 1009.3 |
| 20260505025741 | 16 | 140 | 0.0 | 6.4 | 0.00 | 0.00 | 0.00 | 80 | 1009.2 |
| 20260505025225 | 16 | 140 | 0.0 | 6.4 | 0.00 | 0.00 | 0.00 | 80 | 1009.1 |
| 20260505024726 | 16 | 140 | 0.0 | 3.2 | 0.00 | 0.00 | 0.00 | 79 | 1009.0 |
| 20260505024220 | 16 | 140 | 0.0 | 3.2 | 0.00 | 0.00 | 0.00 | 78 | 1009.0 |
| 20260505023702 | 16 | 140 | 0.0 | 3.2 | 0.00 | 0.00 | 0.00 | 77 | 1009.0 |
| 20260505023155 | 17 | 141 | 0.0 | 4.8 | 0.00 | 0.00 | 0.00 | 77 | 1008.9 |
| 20260505022416 | 17 | 141 | 0.0 | 4.8 | 0.00 | 0.00 | 0.00 | 76 | 1008.9 |
| 20260505021858 | 17 | 141 | 0.0 | 4.8 | 0.00 | 0.00 | 0.00 | 75 | 1008.8 |
| 20260505021404 | 17 | 141 | 0.0 | 4.8 | 0.00 | 0.00 | 0.00 | 74 | 1008.6 |
| 20260505020637 | 18 | 141 | 0.0 | 4.8 | 0.00 | 0.00 | 0.00 | 74 | 1008.6 |
| 20260505020141 | 18 | 142 | 0.0 | 0.0 | 0.00 | 0.00 | 0.00 | 73 | 1008.6 |
| 20260505015355 | 18 | 142 | 0.0 | 14.5 | 0.00 | 0.00 | 0.00 | 72 | 1008.6 |
| 20260505014840 | 18 | 142 | 0.0 | 14.5 | 0.00 | 0.00 | 0.00 | 72 | 1008.5 |
| 20260505014342 | 18 | 146 | 3.2 | 14.5 | 0.00 | 0.00 | 0.00 | 72 | 1008.5 |
| 20260505013612 | 19 | 65 | 1.6 | 14.5 | 0.00 | 0.00 | 0.00 | 71 | 1008.6 |
| 20260505013119 | 19 | 98 | 1.6 | 11.3 | 0.00 | 0.00 | 0.00 | 71 | 1008.6 |
| 20260505012625 | 19 | 42 | 1.6 | 11.3 | 0.00 | 0.00 | 0.00 | 70 | 1008.6 |
| 20260505012111 | 20 | 38 | 1.6 | 11.3 | 0.00 | 0.00 | 0.00 | 69 | 1008.6 |
| 20260505011552 | 20 | 17 | 1.6 | 11.3 | 0.00 | 0.00 | 0.00 | 69 | 1008.5 |
| 20260505011045 | 20 | 53 | 1.6 | 11.3 | 0.00 | 0.00 | 0.00 | 67 | 1008.6 |
| 20260505010540 | 21 | 66 | 1.6 | 8.0 | 0.00 | 0.00 | 0.00 | 66 | 1008.6 |
| 20260505010039 | 21 | 67 | 0.0 | 8.0 | 0.00 | 0.00 | 0.00 | 64 | 1008.7 |
| 20260505005548 | 21 | 67 | 0.0 | 8.0 | 0.00 | 0.00 | 0.00 | 65 | 1008.6 |
| 20260505005038 | 21 | 104 | 1.6 | 8.0 | 0.00 | 0.00 | 0.00 | 64 | 1008.6 |
| 20260505004547 | 21 | 293 | 1.6 | 9.7 | 0.00 | 0.00 | 0.00 | 63 | 1008.6 |
| 20260505004039 | 22 | 355 | 1.6 | 9.7 | 0.00 | 0.00 | 0.00 | 63 | 1008.6 |
| 20260505003527 | 22 | 336 | 1.6 | 9.7 | 0.00 | 0.00 | 0.00 | 61 | 1008.6 |
| 20260505003025 | 22 | 83 | 0.0 | 9.7 | 0.00 | 0.00 | 0.00 | 62 | 1008.6 |
| 20260505002305 | 23 | 349 | 0.0 | 9.7 | 0.00 | 0.00 | 0.00 | 61 | 1008.7 |
| 20260505001757 | 23 | 14 | 1.6 | 9.7 | 0.00 | 0.00 | 0.00 | 62 | 1008.6 |
| 20260505001243 | 23 | 267 | 0.0 | 8.0 | 0.00 | 0.00 | 0.00 | 60 | 1008.6 |
| 20260505000737 | 23 | 266 | 0.0 | 8.0 | 0.00 | 0.00 | 0.00 | 60 | 1008.6 |
| 20260505000222 | 23 | 266 | 1.6 | 8.0 | 0.00 | 0.00 | 0.00 | 59 | 1008.6 |
| 20260504235727 | 23 | 266 | 0.0 | 9.7 | 0.00 | 0.00 | 0.00 | 61 | 1008.6 |
| 20260504235229 | 23 | 265 | 1.6 | 9.7 | 0.00 | 0.00 | 0.00 | 60 | 1008.6 |
| 20260504234736 | 23 | 265 | 1.6 | 9.7 | 0.00 | 0.00 | 0.00 | 60 | 1008.6 |
| 20260504234225 | 23 | 262 | 1.6 | 8.0 | 0.00 | 0.00 | 0.00 | 60 | 1008.5 |
| 20260504233455 | 23 | 261 | 1.6 | 9.7 | 0.00 | 0.00 | 0.00 | 62 | 1008.5 |
| 20260504232939 | 23 | 258 | 1.6 | 9.7 | 0.00 | 0.00 | 0.00 | 61 | 1008.5 |
| 20260504232442 | 23 | 256 | 1.6 | 11.3 | 0.00 | 0.00 | 0.00 | 63 | 1008.5 |
| 20260504231924 | 23 | 257 | 3.2 | 11.3 | 0.00 | 0.00 | 0.00 | 65 | 1008.6 |
| 20260504231417 | 22 | 265 | 4.8 | 12.9 | 0.00 | 0.00 | 0.00 | 67 | 1008.6 |
| 20260504230907 | 22 | 259 | 6.4 | 12.9 | 0.00 | 0.00 | 0.00 | 69 | 1008.6 |
| 20260504230356 | 22 | 259 | 1.6 | 12.9 | 0.00 | 0.00 | 0.00 | 67 | 1008.7 |
| 20260504225634 | 22 | 206 | 1.6 | 6.4 | 0.00 | 0.00 | 0.00 | 69 | 1008.7 |
| 20260504225139 | 21 | 205 | 3.2 | 9.7 | 0.00 | 0.00 | 0.00 | 70 | 1008.7 |
| 20260504224648 | 21 | 207 | 3.2 | 11.3 | 0.00 | 0.00 | 0.00 | 70 | 1008.8 |
| 20260504224153 | 22 | 207 | 3.2 | 11.3 | 0.00 | 0.00 | 0.00 | 69 | 1008.9 |
| 20260504223640 | 22 | 250 | 4.8 | 11.3 | 0.00 | 0.00 | 0.00 | 68 | 1009.0 |
| 20260504223136 | 22 | 225 | 3.2 | 11.3 | 0.00 | 0.00 | 0.00 | 68 | 1009.0 |
| 20260504222628 | 22 | 275 | 3.2 | 11.3 | 0.00 | 0.00 | 0.00 | 68 | 1009.1 |
| 20260504222131 | 22 | 282 | 3.2 | 11.3 | 0.00 | 0.00 | 0.00 | 69 | 1009.1 |
| 20260504221633 | 21 | 231 | 3.2 | 11.3 | 0.00 | 0.00 | 0.00 | 69 | 1009.0 |
| 20260504221129 | 21 | 216 | 3.2 | 14.5 | 0.00 | 0.00 | 0.00 | 69 | 1009.2 |
| 20260504220403 | 21 | 259 | 3.2 | 14.5 | 0.00 | 0.00 | 0.00 | 69 | 1009.3 |
| 20260504215909 | 21 | 245 | 3.2 | 14.5 | 0.00 | 0.00 | 0.00 | 70 | 1009.3 |
| 20260504215411 | 21 | 245 | 4.8 | 14.5 | 0.00 | 0.00 | 0.00 | 70 | 1009.3 |
| 20260504214858 | 21 | 224 | 3.2 | 11.3 | 0.00 | 0.00 | 0.00 | 71 | 1009.4 |
| 20260504214404 | 21 | 219 | 4.8 | 11.3 | 0.00 | 0.00 | 0.00 | 71 | 1009.4 |
| 20260504213637 | 21 | 191 | 3.2 | 9.7 | 0.00 | 0.00 | 0.00 | 70 | 1009.5 |
| 20260504213126 | 21 | 182 | 1.6 | 16.1 | 0.00 | 0.00 | 0.00 | 68 | 1009.6 |
| 20260504212611 | 21 | 234 | 3.2 | 16.1 | 0.00 | 0.00 | 0.00 | 69 | 1009.5 |
| 20260504212108 | 21 | 266 | 3.2 | 16.1 | 0.00 | 0.00 | 0.00 | 70 | 1009.5 |
| 20260504211604 | 21 | 252 | 3.2 | 16.1 | 0.00 | 0.00 | 0.00 | 71 | 1009.6 |
| 20260504211114 | 20 | 229 | 6.4 | 14.5 | 0.00 | 0.00 | 0.00 | 73 | 1009.7 |
| 20260504210330 | 20 | 296 | 3.2 | 12.9 | 0.00 | 0.00 | 0.00 | 72 | 1009.8 |
| 20260504205814 | 20 | 81 | 3.2 | 16.1 | 0.00 | 0.00 | 0.00 | 72 | 1009.8 |
| 20260504205042 | 20 | 261 | 4.8 | 16.1 | 0.00 | 0.00 | 0.00 | 70 | 1009.9 |
| 20260504204531 | 20 | 161 | 4.8 | 16.1 | 0.00 | 0.00 | 0.00 | 72 | 1010.0 |
| 20260504204024 | 20 | 209 | 1.6 | 9.7 | 0.00 | 0.00 | 0.00 | 72 | 1009.9 |
| 20260504203302 | 20 | 244 | 1.6 | 9.7 | 0.00 | 0.00 | 0.00 | 74 | 1010.0 |
| 20260504202752 | 20 | 245 | 3.2 | 9.7 | 0.00 | 0.00 | 0.00 | 71 | 1010.1 |
| 20260504202240 | 20 | 253 | 3.2 | 12.9 | 0.00 | 0.00 | 0.00 | 72 | 1010.1 |
| 20260504201737 | 19 | 236 | 4.8 | 12.9 | 0.00 | 0.00 | 0.00 | 73 | 1010.2 |
| 20260504201224 | 19 | 256 | 4.8 | 12.9 | 0.00 | 0.00 | 0.00 | 73 | 1010.2 |
| 20260504200722 | 20 | 184 | 1.6 | 11.3 | 0.00 | 0.00 | 0.00 | 73 | 1010.3 |
| 20260504195951 | 18 | 180 | 1.6 | 16.1 | 0.00 | 0.00 | 0.00 | 76 | 1010.3 |
| 20260504195440 | 18 | 186 | 3.2 | 16.1 | 0.00 | 0.00 | 0.00 | 74 | 1010.4 |
| 20260504194948 | 18 | 180 | 4.8 | 16.1 | 0.00 | 0.00 | 0.00 | 75 | 1010.4 |
| 20260504194458 | 18 | 221 | 4.8 | 16.1 | 0.00 | 0.00 | 0.00 | 75 | 1010.4 |
| 20260504193943 | 18 | 239 | 3.2 | 14.5 | 0.00 | 0.00 | 0.00 | 76 | 1010.4 |
| 20260504193446 | 18 | 215 | 6.4 | 16.1 | 0.00 | 0.00 | 0.00 | 76 | 1010.4 |
| 20260504192945 | 18 | 199 | 6.4 | 16.1 | 0.00 | 0.00 | 0.00 | 75 | 1010.4 |
| 20260504192427 | 18 | 255 | 6.4 | 16.1 | 0.00 | 0.00 | 0.00 | 75 | 1010.5 |
| 20260504191705 | 18 | 202 | 4.8 | 16.1 | 0.00 | 0.00 | 0.00 | 74 | 1010.5 |
| 20260504191213 | 18 | 259 | 4.8 | 14.5 | 0.00 | 0.00 | 0.00 | 75 | 1010.6 |
| 20260504190654 | 18 | 182 | 4.8 | 14.5 | 0.00 | 0.00 | 0.00 | 75 | 1010.6 |
| 20260504190151 | 18 | 227 | 3.2 | 12.9 | 0.00 | 0.00 | 0.00 | 76 | 1010.7 |
| 20260504185631 | 18 | 251 | 3.2 | 12.9 | 0.00 | 0.00 | 0.00 | 78 | 1010.7 |
| 20260504185127 | 17 | 221 | 4.8 | 12.9 | 0.00 | 0.00 | 0.00 | 77 | 1010.7 |
| 20260504184615 | 17 | 245 | 4.8 | 12.9 | 0.00 | 0.00 | 0.00 | 77 | 1010.7 |
| 20260504184110 | 17 | 196 | 3.2 | 12.9 | 0.00 | 0.00 | 0.00 | 77 | 1010.8 |
| 20260504183335 | 17 | 198 | 3.2 | 12.9 | 0.00 | 0.00 | 0.00 | 76 | 1010.7 |
| 20260504182831 | 17 | 225 | 3.2 | 12.9 | 0.00 | 0.00 | 0.00 | 77 | 1010.7 |
| 20260504182054 | 17 | 225 | 4.8 | 12.9 | 0.00 | 0.00 | 0.00 | 78 | 1010.7 |
| 20260504181551 | 17 | 227 | 4.8 | 12.9 | 0.00 | 0.00 | 0.00 | 79 | 1010.7 |
| 20260504181059 | 17 | 226 | 3.2 | 12.9 | 0.00 | 0.00 | 0.00 | 79 | 1010.7 |
| 20260504180602 | 17 | 197 | 3.2 | 12.9 | 0.00 | 0.00 | 0.00 | 80 | 1010.7 |
| 20260504175841 | 16 | 183 | 3.2 | 12.9 | 0.00 | 0.00 | 0.00 | 81 | 1010.7 |
| 20260504175117 | 16 | 188 | 3.2 | 12.9 | 0.00 | 0.00 | 0.00 | 79 | 1010.7 |
| 20260504174352 | 16 | 189 | 3.2 | 14.5 | 0.00 | 0.00 | 0.00 | 81 | 1010.7 |
| 20260504173833 | 16 | 227 | 3.2 | 14.5 | 0.00 | 0.00 | 0.00 | 80 | 1010.7 |
| 20260504173328 | 16 | 263 | 3.2 | 14.5 | 0.00 | 0.00 | 0.00 | 81 | 1010.6 |
| 20260504172833 | 16 | 249 | 1.6 | 14.5 | 0.00 | 0.00 | 0.00 | 80 | 1010.6 |
| 20260504172109 | 16 | 192 | 3.2 | 9.7 | 0.00 | 0.00 | 0.00 | 81 | 1010.7 |
| 20260504171606 | 16 | 223 | 3.2 | 9.7 | 0.00 | 0.00 | 0.00 | 81 | 1010.7 |
| 20260504171059 | 16 | 239 | 3.2 | 9.7 | 0.00 | 0.00 | 0.00 | 81 | 1010.7 |
| 20260504170609 | 16 | 222 | 3.2 | 9.7 | 0.00 | 0.00 | 0.00 | 80 | 1010.7 |
| 20260504170119 | 16 | 221 | 1.6 | 9.7 | 0.00 | 0.00 | 0.00 | 81 | 1010.7 |
| 20260504150721 | 14 | 187 | 0.0 | 3.2 | 0.00 | 0.00 | 0.00 | 83 | 1010.0 |
| 20260504150214 | 13 | 187 | 0.0 | 3.2 | 0.00 | 0.00 | 0.00 | 84 | 1010.0 |
| 20260504140856 | 12 | 178 | 0.0 | 0.0 | 0.00 | 0.00 | 0.00 | 88 | 1009.6 |
| 20260504140340 | 12 | 178 | 0.0 | 3.2 | 0.00 | 0.00 | 0.00 | 88 | 1009.4 |
| 20260504130741 | 13 | 66 | 0.0 | 0.0 | 0.00 | 0.00 | 0.00 | 82 | 1008.5 |
| 20260504130251 | 13 | 66 | 0.0 | 0.0 | 0.00 | 0.00 | 0.00 | 82 | 1008.4 |
| 20260504110325 | 15 | 52 | 0.0 | 6.4 | 0.00 | 0.00 | 0.00 | 74 | 1006.9 |
| 20260504100151 | 18 | 46 | 0.0 | 0.0 | 0.00 | 0.00 | 0.00 | 65 | 1006.7 |